owner,sensor,date,latitude,longitude,sea_surface_height_above_sea_level,qcFlag 
TCOON,ioos:station:TCOON:518:1,2014-06-01T00:00:00Z,29.5150,-94.5133,1.531,1111122 
TCOON,ioos:station:TCOON:518:1,2014-06-01T01:00:00Z,29.5150,-94.5133,1.497,1111122 
TCOON,ioos:station:TCOON:518:1,2014-06-01T01:54:00Z,29.5150,-94.5133,1.472,1111122 
TCOON,ioos:station:TCOON:518:1,2014-06-01T03:00:00Z,29.5150,-94.5133,1.443,1111122 
TCOON,ioos:station:TCOON:518:1,2014-06-01T04:00:00Z,29.5150,-94.5133,1.341,1111122 
TCOON,ioos:station:TCOON:518:1,2014-06-01T05:00:00Z,29.5150,-94.5133,1.351,1111122 
TCOON,ioos:station:TCOON:518:1,2014-06-01T06:30:00Z,29.5150,-94.5133,1.247,1111122 
TCOON,ioos:station:TCOON:518:1,2014-06-01T07:00:00Z,29.5150,-94.5133,1.235,1111122 
TCOON,ioos:station:TCOON:518:1,2014-06-01T08:00:00Z,29.5150,-94.5133,1.206,1111122 
TCOON,ioos:station:TCOON:518:1,2014-06-01T09:00:00Z,29.5150,-94.5133,1.202,1111122 
TCOON,ioos:station:TCOON:518:1,2014-06-01T10:00:00Z,29.5150,-94.5133,1.216,1111122 
TCOON,ioos:station:TCOON:518:1,2014-06-01T11:00:00Z,29.5150,-94.5133,1.268,1111122 
TCOON,ioos:station:TCOON:518:1,2014-06-01T12:00:00Z,29.5150,-94.5133,1.376,1111122 
TCOON,ioos:station:TCOON:518:1,2014-06-01T13:00:00Z,29.5150,-94.5133,1.453,1111122 
TCOON,ioos:station:TCOON:518:1,2014-06-01T14:00:00Z,29.5150,-94.5133,1.496,1111122 
TCOON,ioos:station:TCOON:518:1,2014-06-01T15:00:00Z,29.5150,-94.5133,1.559,1111122 
TCOON,ioos:station:TCOON:518:1,2014-06-01T16:00:00Z,29.5150,-94.5133,1.627,1111122 
TCOON,ioos:station:TCOON:518:1,2014-06-01T17:00:00Z,29.5150,-94.5133,1.646,1111122 
TCOON,ioos:station:TCOON:518:1,2014-06-01T18:00:00Z,29.5150,-94.5133,1.66,1111122 
TCOON,ioos:station:TCOON:518:1,2014-06-01T19:00:00Z,29.5150,-94.5133,1.638,1111122 
TCOON,ioos:station:TCOON:518:1,2014-06-01T20:00:00Z,29.5150,-94.5133,1.614,1111122 
TCOON,ioos:station:TCOON:518:1,2014-06-01T21:00:00Z,29.5150,-94.5133,1.597,1111122 
TCOON,ioos:station:TCOON:518:1,2014-06-01T22:00:00Z,29.5150,-94.5133,1.616,1111122 
TCOON,ioos:station:TCOON:518:1,2014-06-01T23:00:00Z,29.5150,-94.5133,1.655,1111122 
TCOON,ioos:station:TCOON:518:1,2014-06-01T23:54:00Z,29.5150,-94.5133,1.648,1111122 
TCOON,ioos:station:TCOON:518:1,2014-06-02T01:00:00Z,29.5150,-94.5133,1.601,1111122 
TCOON,ioos:station:TCOON:518:1,2014-06-02T02:00:00Z,29.5150,-94.5133,1.553,1111122 
TCOON,ioos:station:TCOON:518:1,2014-06-02T03:00:00Z,29.5150,-94.5133,1.519,1111122 
TCOON,ioos:station:TCOON:518:1,2014-06-02T04:00:00Z,29.5150,-94.5133,1.493,1111122 
TCOON,ioos:station:TCOON:518:1,2014-06-02T05:00:00Z,29.5150,-94.5133,1.438,1111122 
TCOON,ioos:station:TCOON:518:1,2014-06-02T06:36:00Z,29.5150,-94.5133,1.386,1111122 
TCOON,ioos:station:TCOON:518:1,2014-06-02T07:00:00Z,29.5150,-94.5133,1.372,1111122 
TCOON,ioos:station:TCOON:518:1,2014-06-02T08:00:00Z,29.5150,-94.5133,1.334,1111122 
TCOON,ioos:station:TCOON:518:1,2014-06-02T09:00:00Z,29.5150,-94.5133,1.294,1111122 
TCOON,ioos:station:TCOON:518:1,2014-06-02T10:00:00Z,29.5150,-94.5133,1.305,1111122 
TCOON,ioos:station:TCOON:518:1,2014-06-02T11:00:00Z,29.5150,-94.5133,1.349,1111122 
TCOON,ioos:station:TCOON:518:1,2014-06-02T12:00:00Z,29.5150,-94.5133,1.4,1111122 
TCOON,ioos:station:TCOON:518:1,2014-06-02T12:54:00Z,29.5150,-94.5133,1.471,1111122 
TCOON,ioos:station:TCOON:518:1,2014-06-02T14:00:00Z,29.5150,-94.5133,1.538,1111122 
TCOON,ioos:station:TCOON:518:1,2014-06-02T15:00:00Z,29.5150,-94.5133,1.588,1111122 
TCOON,ioos:station:TCOON:518:1,2014-06-02T16:00:00Z,29.5150,-94.5133,1.619,1111122 
TCOON,ioos:station:TCOON:518:1,2014-06-02T17:00:00Z,29.5150,-94.5133,1.642,1111122 
TCOON,ioos:station:TCOON:518:1,2014-06-02T18:00:00Z,29.5150,-94.5133,1.663,1111122 
TCOON,ioos:station:TCOON:518:1,2014-06-02T19:00:00Z,29.5150,-94.5133,1.685,1111122 
TCOON,ioos:station:TCOON:518:1,2014-06-02T20:00:00Z,29.5150,-94.5133,1.673,1111122 
TCOON,ioos:station:TCOON:518:1,2014-06-02T21:00:00Z,29.5150,-94.5133,1.667,1111122 
TCOON,ioos:station:TCOON:518:1,2014-06-02T22:00:00Z,29.5150,-94.5133,1.62,1111122 
TCOON,ioos:station:TCOON:518:1,2014-06-02T23:00:00Z,29.5150,-94.5133,1.617,1111122 
TCOON,ioos:station:TCOON:518:1,2014-06-02T23:54:00Z,29.5150,-94.5133,1.579,1111122 
TCOON,ioos:station:TCOON:518:1,2014-06-03T01:00:00Z,29.5150,-94.5133,1.548,1111122 
TCOON,ioos:station:TCOON:518:1,2014-06-03T02:00:00Z,29.5150,-94.5133,1.559,1111122 
TCOON,ioos:station:TCOON:518:1,2014-06-03T03:00:00Z,29.5150,-94.5133,1.542,1111122 
TCOON,ioos:station:TCOON:518:1,2014-06-03T04:00:00Z,29.5150,-94.5133,1.521,1111122 
TCOON,ioos:station:TCOON:518:1,2014-06-03T05:00:00Z,29.5150,-94.5133,1.514,1111122 
TCOON,ioos:station:TCOON:518:1,2014-06-03T06:24:00Z,29.5150,-94.5133,1.458,1111122 
TCOON,ioos:station:TCOON:518:1,2014-06-03T07:00:00Z,29.5150,-94.5133,1.392,1111122 
TCOON,ioos:station:TCOON:518:1,2014-06-03T08:00:00Z,29.5150,-94.5133,1.382,1111122 
TCOON,ioos:station:TCOON:518:1,2014-06-03T09:00:00Z,29.5150,-94.5133,1.367,1111122 
TCOON,ioos:station:TCOON:518:1,2014-06-03T10:00:00Z,29.5150,-94.5133,1.351,1111122 
TCOON,ioos:station:TCOON:518:1,2014-06-03T11:00:00Z,29.5150,-94.5133,1.325,1111122 
TCOON,ioos:station:TCOON:518:1,2014-06-03T12:00:00Z,29.5150,-94.5133,1.366,1111122 
TCOON,ioos:station:TCOON:518:1,2014-06-03T13:00:00Z,29.5150,-94.5133,1.393,1111122 
TCOON,ioos:station:TCOON:518:1,2014-06-03T14:00:00Z,29.5150,-94.5133,1.45,1111122 
TCOON,ioos:station:TCOON:518:1,2014-06-03T15:00:00Z,29.5150,-94.5133,1.509,1111122 
TCOON,ioos:station:TCOON:518:1,2014-06-03T16:00:00Z,29.5150,-94.5133,1.566,1111122 
TCOON,ioos:station:TCOON:518:1,2014-06-03T17:00:00Z,29.5150,-94.5133,1.619,1111122 
TCOON,ioos:station:TCOON:518:1,2014-06-03T18:00:00Z,29.5150,-94.5133,1.649,1111122 
TCOON,ioos:station:TCOON:518:1,2014-06-03T19:00:00Z,29.5150,-94.5133,1.604,1111122 
TCOON,ioos:station:TCOON:518:1,2014-06-03T20:00:00Z,29.5150,-94.5133,1.601,1111122 
TCOON,ioos:station:TCOON:518:1,2014-06-03T21:00:00Z,29.5150,-94.5133,1.603,1111122 
TCOON,ioos:station:TCOON:518:1,2014-06-03T22:00:00Z,29.5150,-94.5133,1.641,1111122 
TCOON,ioos:station:TCOON:518:1,2014-06-03T23:00:00Z,29.5150,-94.5133,1.639,1111122 
TCOON,ioos:station:TCOON:518:1,2014-06-04T00:00:00Z,29.5150,-94.5133,1.61,1111122 
TCOON,ioos:station:TCOON:518:1,2014-06-04T01:00:00Z,29.5150,-94.5133,1.601,1111122 
TCOON,ioos:station:TCOON:518:1,2014-06-04T01:54:00Z,29.5150,-94.5133,1.574,1111122 
TCOON,ioos:station:TCOON:518:1,2014-06-04T03:00:00Z,29.5150,-94.5133,1.559,1111122 
TCOON,ioos:station:TCOON:518:1,2014-06-04T04:00:00Z,29.5150,-94.5133,1.527,1111122 
TCOON,ioos:station:TCOON:518:1,2014-06-04T05:00:00Z,29.5150,-94.5133,1.516,1111122 
TCOON,ioos:station:TCOON:518:1,2014-06-04T06:00:00Z,29.5150,-94.5133,1.466,1111122 
TCOON,ioos:station:TCOON:518:1,2014-06-04T07:00:00Z,29.5150,-94.5133,1.442,1111122 
TCOON,ioos:station:TCOON:518:1,2014-06-04T08:00:00Z,29.5150,-94.5133,1.404,1111122 
TCOON,ioos:station:TCOON:518:1,2014-06-04T09:00:00Z,29.5150,-94.5133,1.385,1111122 
TCOON,ioos:station:TCOON:518:1,2014-06-04T10:00:00Z,29.5150,-94.5133,1.372,1111122 
TCOON,ioos:station:TCOON:518:1,2014-06-04T11:00:00Z,29.5150,-94.5133,1.369,1111122 
TCOON,ioos:station:TCOON:518:1,2014-06-04T12:00:00Z,29.5150,-94.5133,1.388,1111122 
TCOON,ioos:station:TCOON:518:1,2014-06-04T13:00:00Z,29.5150,-94.5133,1.413,1111122 
TCOON,ioos:station:TCOON:518:1,2014-06-04T14:00:00Z,29.5150,-94.5133,1.462,1111122 
TCOON,ioos:station:TCOON:518:1,2014-06-04T15:00:00Z,29.5150,-94.5133,1.512,1111122 
TCOON,ioos:station:TCOON:518:1,2014-06-04T16:00:00Z,29.5150,-94.5133,1.575,1111122 
TCOON,ioos:station:TCOON:518:1,2014-06-04T17:00:00Z,29.5150,-94.5133,1.619,1111122 
TCOON,ioos:station:TCOON:518:1,2014-06-04T18:00:00Z,29.5150,-94.5133,1.627,1111122 
TCOON,ioos:station:TCOON:518:1,2014-06-04T19:00:00Z,29.5150,-94.5133,1.634,1111122 
TCOON,ioos:station:TCOON:518:1,2014-06-04T20:00:00Z,29.5150,-94.5133,1.643,1111122 
TCOON,ioos:station:TCOON:518:1,2014-06-04T21:00:00Z,29.5150,-94.5133,1.639,1111122 
TCOON,ioos:station:TCOON:518:1,2014-06-04T22:00:00Z,29.5150,-94.5133,1.616,1111122 
TCOON,ioos:station:TCOON:518:1,2014-06-04T23:00:00Z,29.5150,-94.5133,1.581,1111122 
TCOON,ioos:station:TCOON:518:1,2014-06-05T00:00:00Z,29.5150,-94.5133,1.553,1111122 
TCOON,ioos:station:TCOON:518:1,2014-06-05T00:54:00Z,29.5150,-94.5133,1.535,1111122 
TCOON,ioos:station:TCOON:518:1,2014-06-05T01:54:00Z,29.5150,-94.5133,1.516,1111122 
TCOON,ioos:station:TCOON:518:1,2014-06-05T03:00:00Z,29.5150,-94.5133,1.501,1111122 
TCOON,ioos:station:TCOON:518:1,2014-06-05T04:00:00Z,29.5150,-94.5133,1.51,1111122 
TCOON,ioos:station:TCOON:518:1,2014-06-05T05:00:00Z,29.5150,-94.5133,1.515,1111122 
TCOON,ioos:station:TCOON:518:1,2014-06-05T06:24:00Z,29.5150,-94.5133,1.49,1111122 
TCOON,ioos:station:TCOON:518:1,2014-06-05T06:54:00Z,29.5150,-94.5133,1.458,1111122 
TCOON,ioos:station:TCOON:518:1,2014-06-05T08:00:00Z,29.5150,-94.5133,1.443,1111122 
TCOON,ioos:station:TCOON:518:1,2014-06-05T09:00:00Z,29.5150,-94.5133,1.442,1111122 
TCOON,ioos:station:TCOON:518:1,2014-06-05T10:00:00Z,29.5150,-94.5133,1.44,1111122 
TCOON,ioos:station:TCOON:518:1,2014-06-05T11:00:00Z,29.5150,-94.5133,1.423,1111122 
TCOON,ioos:station:TCOON:518:1,2014-06-05T12:00:00Z,29.5150,-94.5133,1.402,1111122 
TCOON,ioos:station:TCOON:518:1,2014-06-05T13:00:00Z,29.5150,-94.5133,1.387,1111122 
TCOON,ioos:station:TCOON:518:1,2014-06-05T14:00:00Z,29.5150,-94.5133,1.412,1111122 
TCOON,ioos:station:TCOON:518:1,2014-06-05T15:00:00Z,29.5150,-94.5133,1.463,1111122 
TCOON,ioos:station:TCOON:518:1,2014-06-05T16:00:00Z,29.5150,-94.5133,1.507,1111122 
TCOON,ioos:station:TCOON:518:1,2014-06-05T17:00:00Z,29.5150,-94.5133,1.55,1111122 
TCOON,ioos:station:TCOON:518:1,2014-06-05T18:00:00Z,29.5150,-94.5133,1.583,1111122 
TCOON,ioos:station:TCOON:518:1,2014-06-05T19:00:00Z,29.5150,-94.5133,1.612,1111122 
TCOON,ioos:station:TCOON:518:1,2014-06-05T20:00:00Z,29.5150,-94.5133,1.632,1111122 
TCOON,ioos:station:TCOON:518:1,2014-06-05T21:00:00Z,29.5150,-94.5133,1.625,1111122 
TCOON,ioos:station:TCOON:518:1,2014-06-05T22:00:00Z,29.5150,-94.5133,1.577,1111122 
TCOON,ioos:station:TCOON:518:1,2014-06-05T23:00:00Z,29.5150,-94.5133,1.535,1111122 
TCOON,ioos:station:TCOON:518:1,2014-06-06T00:00:00Z,29.5150,-94.5133,1.516,1111122 
TCOON,ioos:station:TCOON:518:1,2014-06-06T01:00:00Z,29.5150,-94.5133,1.489,1111122 
TCOON,ioos:station:TCOON:518:1,2014-06-06T02:00:00Z,29.5150,-94.5133,1.448,1111122 
TCOON,ioos:station:TCOON:518:1,2014-06-06T03:00:00Z,29.5150,-94.5133,1.425,1111122 
TCOON,ioos:station:TCOON:518:1,2014-06-06T04:00:00Z,29.5150,-94.5133,1.418,1111122 
TCOON,ioos:station:TCOON:518:1,2014-06-06T05:00:00Z,29.5150,-94.5133,1.443,1111122 
TCOON,ioos:station:TCOON:518:1,2014-06-06T06:24:00Z,29.5150,-94.5133,1.436,1111122 
TCOON,ioos:station:TCOON:518:1,2014-06-06T06:54:00Z,29.5150,-94.5133,1.458,1111122 
TCOON,ioos:station:TCOON:518:1,2014-06-06T08:00:00Z,29.5150,-94.5133,1.474,1111122 
TCOON,ioos:station:TCOON:518:1,2014-06-06T09:00:00Z,29.5150,-94.5133,1.5,1111122 
TCOON,ioos:station:TCOON:518:1,2014-06-06T10:00:00Z,29.5150,-94.5133,1.507,1111122 
TCOON,ioos:station:TCOON:518:1,2014-06-06T11:00:00Z,29.5150,-94.5133,1.49,1111122 
TCOON,ioos:station:TCOON:518:1,2014-06-06T12:00:00Z,29.5150,-94.5133,1.491,1111122 
TCOON,ioos:station:TCOON:518:1,2014-06-06T13:00:00Z,29.5150,-94.5133,1.461,1111122 
TCOON,ioos:station:TCOON:518:1,2014-06-06T14:00:00Z,29.5150,-94.5133,1.454,1111122 
TCOON,ioos:station:TCOON:518:1,2014-06-06T15:00:00Z,29.5150,-94.5133,1.485,1111122 
TCOON,ioos:station:TCOON:518:1,2014-06-06T16:00:00Z,29.5150,-94.5133,1.528,1111122 
TCOON,ioos:station:TCOON:518:1,2014-06-06T17:00:00Z,29.5150,-94.5133,1.558,1111122 
TCOON,ioos:station:TCOON:518:1,2014-06-06T18:00:00Z,29.5150,-94.5133,1.56,1111122 
TCOON,ioos:station:TCOON:518:1,2014-06-06T19:00:00Z,29.5150,-94.5133,1.557,1111122 
TCOON,ioos:station:TCOON:518:1,2014-06-06T20:00:00Z,29.5150,-94.5133,1.583,1111122 
TCOON,ioos:station:TCOON:518:1,2014-06-06T21:00:00Z,29.5150,-94.5133,1.563,1111122 
TCOON,ioos:station:TCOON:518:1,2014-06-06T22:00:00Z,29.5150,-94.5133,1.523,1111122 
TCOON,ioos:station:TCOON:518:1,2014-06-06T23:00:00Z,29.5150,-94.5133,1.461,1111122 
TCOON,ioos:station:TCOON:518:1,2014-06-07T00:00:00Z,29.5150,-94.5133,1.422,1111122 
TCOON,ioos:station:TCOON:518:1,2014-06-07T01:00:00Z,29.5150,-94.5133,1.383,1111122 
TCOON,ioos:station:TCOON:518:1,2014-06-07T02:00:00Z,29.5150,-94.5133,1.353,1111122 
TCOON,ioos:station:TCOON:518:1,2014-06-07T03:00:00Z,29.5150,-94.5133,1.34,1111122 
TCOON,ioos:station:TCOON:518:1,2014-06-07T04:00:00Z,29.5150,-94.5133,1.327,1111122 
TCOON,ioos:station:TCOON:518:1,2014-06-07T05:00:00Z,29.5150,-94.5133,1.325,1111122 
TCOON,ioos:station:TCOON:518:1,2014-06-07T06:00:00Z,29.5150,-94.5133,1.35,1111122 
TCOON,ioos:station:TCOON:518:1,2014-06-07T07:00:00Z,29.5150,-94.5133,1.392,1111122 
TCOON,ioos:station:TCOON:518:1,2014-06-07T08:00:00Z,29.5150,-94.5133,1.387,1111122 
TCOON,ioos:station:TCOON:518:1,2014-06-07T09:00:00Z,29.5150,-94.5133,1.465,1111122 
TCOON,ioos:station:TCOON:518:1,2014-06-07T10:00:00Z,29.5150,-94.5133,1.492,1111122 
TCOON,ioos:station:TCOON:518:1,2014-06-07T11:00:00Z,29.5150,-94.5133,1.523,1111122 
TCOON,ioos:station:TCOON:518:1,2014-06-07T11:54:00Z,29.5150,-94.5133,1.504,1111122 
TCOON,ioos:station:TCOON:518:1,2014-06-07T13:00:00Z,29.5150,-94.5133,1.463,1111122 
TCOON,ioos:station:TCOON:518:1,2014-06-07T14:00:00Z,29.5150,-94.5133,1.462,1111122 
TCOON,ioos:station:TCOON:518:1,2014-06-07T15:06:00Z,29.5150,-94.5133,1.493,1111122 
TCOON,ioos:station:TCOON:518:1,2014-06-07T16:00:00Z,29.5150,-94.5133,1.495,1111122 
TCOON,ioos:station:TCOON:518:1,2014-06-07T17:00:00Z,29.5150,-94.5133,1.505,1111122 
TCOON,ioos:station:TCOON:518:1,2014-06-07T18:00:00Z,29.5150,-94.5133,1.495,1111122 
TCOON,ioos:station:TCOON:518:1,2014-06-07T19:00:00Z,29.5150,-94.5133,1.528,1111122 
TCOON,ioos:station:TCOON:518:1,2014-06-07T20:00:00Z,29.5150,-94.5133,1.526,1111122 
TCOON,ioos:station:TCOON:518:1,2014-06-07T21:00:00Z,29.5150,-94.5133,1.504,1111122 
TCOON,ioos:station:TCOON:518:1,2014-06-07T21:54:00Z,29.5150,-94.5133,1.471,1111122 
TCOON,ioos:station:TCOON:518:1,2014-06-07T23:00:00Z,29.5150,-94.5133,1.437,1111122 
TCOON,ioos:station:TCOON:518:1,2014-06-08T00:00:00Z,29.5150,-94.5133,1.374,1111122 
TCOON,ioos:station:TCOON:518:1,2014-06-08T01:00:00Z,29.5150,-94.5133,1.322,1111122 
TCOON,ioos:station:TCOON:518:1,2014-06-08T01:54:00Z,29.5150,-94.5133,1.275,1111122 
TCOON,ioos:station:TCOON:518:1,2014-06-08T03:00:00Z,29.5150,-94.5133,1.253,1111122 
TCOON,ioos:station:TCOON:518:1,2014-06-08T04:12:00Z,29.5150,-94.5133,1.255,1111122 
TCOON,ioos:station:TCOON:518:1,2014-06-08T05:00:00Z,29.5150,-94.5133,1.263,1111122 
TCOON,ioos:station:TCOON:518:1,2014-06-08T06:24:00Z,29.5150,-94.5133,1.284,1111122 
TCOON,ioos:station:TCOON:518:1,2014-06-08T07:00:00Z,29.5150,-94.5133,1.352,1111122 
TCOON,ioos:station:TCOON:518:1,2014-06-08T08:00:00Z,29.5150,-94.5133,1.415,1111122 
TCOON,ioos:station:TCOON:518:1,2014-06-08T09:00:00Z,29.5150,-94.5133,1.445,1111122 
TCOON,ioos:station:TCOON:518:1,2014-06-08T10:00:00Z,29.5150,-94.5133,1.511,1111122 
TCOON,ioos:station:TCOON:518:1,2014-06-08T11:00:00Z,29.5150,-94.5133,1.506,1111122 
TCOON,ioos:station:TCOON:518:1,2014-06-08T12:00:00Z,29.5150,-94.5133,1.528,1111122 
TCOON,ioos:station:TCOON:518:1,2014-06-08T13:00:00Z,29.5150,-94.5133,1.559,1111122 
TCOON,ioos:station:TCOON:518:1,2014-06-08T14:00:00Z,29.5150,-94.5133,1.543,1111122 
TCOON,ioos:station:TCOON:518:1,2014-06-08T15:00:00Z,29.5150,-94.5133,1.539,1111122 
TCOON,ioos:station:TCOON:518:1,2014-06-08T16:00:00Z,29.5150,-94.5133,1.551,1111122 
TCOON,ioos:station:TCOON:518:1,2014-06-08T17:00:00Z,29.5150,-94.5133,1.54,1111122 
TCOON,ioos:station:TCOON:518:1,2014-06-08T18:00:00Z,29.5150,-94.5133,1.548,1111122 
TCOON,ioos:station:TCOON:518:1,2014-06-08T19:00:00Z,29.5150,-94.5133,1.546,1111122 
TCOON,ioos:station:TCOON:518:1,2014-06-08T20:00:00Z,29.5150,-94.5133,1.535,1111122 
TCOON,ioos:station:TCOON:518:1,2014-06-08T21:00:00Z,29.5150,-94.5133,1.509,1111122 
TCOON,ioos:station:TCOON:518:1,2014-06-08T22:00:00Z,29.5150,-94.5133,1.459,1111122 
TCOON,ioos:station:TCOON:518:1,2014-06-08T23:00:00Z,29.5150,-94.5133,1.372,1111122 
TCOON,ioos:station:TCOON:518:1,2014-06-09T00:00:00Z,29.5150,-94.5133,1.312,1111122 
TCOON,ioos:station:TCOON:518:1,2014-06-09T01:00:00Z,29.5150,-94.5133,1.305,1111122 
TCOON,ioos:station:TCOON:518:1,2014-06-09T02:00:00Z,29.5150,-94.5133,1.26,1111122 
TCOON,ioos:station:TCOON:518:1,2014-06-09T03:00:00Z,29.5150,-94.5133,1.23,1111122 
TCOON,ioos:station:TCOON:518:1,2014-06-09T04:00:00Z,29.5150,-94.5133,1.233,1111122 
TCOON,ioos:station:TCOON:518:1,2014-06-09T05:00:00Z,29.5150,-94.5133,1.219,1111122 
TCOON,ioos:station:TCOON:518:1,2014-06-09T06:30:00Z,29.5150,-94.5133,1.312,1111122 
TCOON,ioos:station:TCOON:518:1,2014-06-09T07:00:00Z,29.5150,-94.5133,1.336,1111122 
TCOON,ioos:station:TCOON:518:1,2014-06-09T08:00:00Z,29.5150,-94.5133,1.41,1111122 
TCOON,ioos:station:TCOON:518:1,2014-06-09T09:00:00Z,29.5150,-94.5133,1.457,1111122 
TCOON,ioos:station:TCOON:518:1,2014-06-09T10:00:00Z,29.5150,-94.5133,1.487,1111122 
TCOON,ioos:station:TCOON:518:1,2014-06-09T11:00:00Z,29.5150,-94.5133,1.512,1111122 
TCOON,ioos:station:TCOON:518:1,2014-06-09T12:00:00Z,29.5150,-94.5133,1.525,1111122 
TCOON,ioos:station:TCOON:518:1,2014-06-09T12:54:00Z,29.5150,-94.5133,1.553,1111122 
TCOON,ioos:station:TCOON:518:1,2014-06-09T14:00:00Z,29.5150,-94.5133,1.589,1111122 
TCOON,ioos:station:TCOON:518:1,2014-06-09T15:00:00Z,29.5150,-94.5133,1.603,1111122 
TCOON,ioos:station:TCOON:518:1,2014-06-09T16:00:00Z,29.5150,-94.5133,1.614,1111122 
TCOON,ioos:station:TCOON:518:1,2014-06-09T17:00:00Z,29.5150,-94.5133,1.611,1111122 
TCOON,ioos:station:TCOON:518:1,2014-06-09T18:00:00Z,29.5150,-94.5133,1.662,1111122 
TCOON,ioos:station:TCOON:518:1,2014-06-09T19:00:00Z,29.5150,-94.5133,1.679,1111122 
TCOON,ioos:station:TCOON:518:1,2014-06-09T19:54:00Z,29.5150,-94.5133,1.696,1111122 
TCOON,ioos:station:TCOON:518:1,2014-06-09T21:00:00Z,29.5150,-94.5133,1.703,1111122 
TCOON,ioos:station:TCOON:518:1,2014-06-09T22:00:00Z,29.5150,-94.5133,1.645,1111122 
TCOON,ioos:station:TCOON:518:1,2014-06-09T23:00:00Z,29.5150,-94.5133,1.543,1111122 
TCOON,ioos:station:TCOON:518:1,2014-06-10T00:00:00Z,29.5150,-94.5133,1.456,1111122 
TCOON,ioos:station:TCOON:518:1,2014-06-10T01:00:00Z,29.5150,-94.5133,1.361,1111122 
TCOON,ioos:station:TCOON:518:1,2014-06-10T02:00:00Z,29.5150,-94.5133,1.341,1111122 
TCOON,ioos:station:TCOON:518:1,2014-06-10T03:00:00Z,29.5150,-94.5133,1.28,1111122 
TCOON,ioos:station:TCOON:518:1,2014-06-10T04:00:00Z,29.5150,-94.5133,1.228,1111122 
TCOON,ioos:station:TCOON:518:1,2014-06-10T05:00:00Z,29.5150,-94.5133,1.252,1111122 
TCOON,ioos:station:TCOON:518:1,2014-06-10T06:24:00Z,29.5150,-94.5133,1.344,1111122 
TCOON,ioos:station:TCOON:518:1,2014-06-10T07:00:00Z,29.5150,-94.5133,1.376,1111122 
TCOON,ioos:station:TCOON:518:1,2014-06-10T08:00:00Z,29.5150,-94.5133,1.444,1111122 
TCOON,ioos:station:TCOON:518:1,2014-06-10T09:00:00Z,29.5150,-94.5133,1.536,1111122 
TCOON,ioos:station:TCOON:518:1,2014-06-10T10:00:00Z,29.5150,-94.5133,1.619,1111122 
TCOON,ioos:station:TCOON:518:1,2014-06-10T11:00:00Z,29.5150,-94.5133,1.696,1111122 
TCOON,ioos:station:TCOON:518:1,2014-06-10T12:00:00Z,29.5150,-94.5133,1.842,1111122 
TCOON,ioos:station:TCOON:518:1,2014-06-10T13:00:00Z,29.5150,-94.5133,1.833,1111122 
TCOON,ioos:station:TCOON:518:1,2014-06-10T14:00:00Z,29.5150,-94.5133,1.834,1111122 
TCOON,ioos:station:TCOON:518:1,2014-06-10T15:00:00Z,29.5150,-94.5133,1.717,1111122 
TCOON,ioos:station:TCOON:518:1,2014-06-10T16:00:00Z,29.5150,-94.5133,1.643,1111122 
TCOON,ioos:station:TCOON:518:1,2014-06-10T17:00:00Z,29.5150,-94.5133,1.595,1111122 
TCOON,ioos:station:TCOON:518:1,2014-06-10T18:00:00Z,29.5150,-94.5133,1.568,1111122 
TCOON,ioos:station:TCOON:518:1,2014-06-10T19:00:00Z,29.5150,-94.5133,1.548,1111122 
TCOON,ioos:station:TCOON:518:1,2014-06-10T20:00:00Z,29.5150,-94.5133,1.492,1111122 
TCOON,ioos:station:TCOON:518:1,2014-06-10T21:00:00Z,29.5150,-94.5133,1.505,1111122 
TCOON,ioos:station:TCOON:518:1,2014-06-10T22:00:00Z,29.5150,-94.5133,1.451,1111122 
TCOON,ioos:station:TCOON:518:1,2014-06-10T23:00:00Z,29.5150,-94.5133,1.418,1111122 
TCOON,ioos:station:TCOON:518:1,2014-06-11T00:00:00Z,29.5150,-94.5133,1.328,1111122 
TCOON,ioos:station:TCOON:518:1,2014-06-11T01:00:00Z,29.5150,-94.5133,1.244,1111122 
TCOON,ioos:station:TCOON:518:1,2014-06-11T02:00:00Z,29.5150,-94.5133,1.156,1111122 
TCOON,ioos:station:TCOON:518:1,2014-06-11T03:00:00Z,29.5150,-94.5133,1.112,1111122 
TCOON,ioos:station:TCOON:518:1,2014-06-11T04:00:00Z,29.5150,-94.5133,1.065,1111122 
TCOON,ioos:station:TCOON:518:1,2014-06-11T04:54:00Z,29.5150,-94.5133,1.011,1111122 
TCOON,ioos:station:TCOON:518:1,2014-06-11T06:30:00Z,29.5150,-94.5133,0.962,1111122 
TCOON,ioos:station:TCOON:518:1,2014-06-11T07:00:00Z,29.5150,-94.5133,0.965,1111122 
TCOON,ioos:station:TCOON:518:1,2014-06-11T08:00:00Z,29.5150,-94.5133,1.05,1111122 
TCOON,ioos:station:TCOON:518:1,2014-06-11T09:00:00Z,29.5150,-94.5133,1.115,1111122 
TCOON,ioos:station:TCOON:518:1,2014-06-11T10:00:00Z,29.5150,-94.5133,1.192,1111122 
TCOON,ioos:station:TCOON:518:1,2014-06-11T11:00:00Z,29.5150,-94.5133,1.278,1111122 
TCOON,ioos:station:TCOON:518:1,2014-06-11T12:00:00Z,29.5150,-94.5133,1.344,1111122 
TCOON,ioos:station:TCOON:518:1,2014-06-11T13:00:00Z,29.5150,-94.5133,1.381,1111122 
TCOON,ioos:station:TCOON:518:1,2014-06-11T14:00:00Z,29.5150,-94.5133,1.407,1111122 
TCOON,ioos:station:TCOON:518:1,2014-06-11T15:00:00Z,29.5150,-94.5133,1.426,1111122 
TCOON,ioos:station:TCOON:518:1,2014-06-11T16:00:00Z,29.5150,-94.5133,1.435,1111122 
TCOON,ioos:station:TCOON:518:1,2014-06-11T17:00:00Z,29.5150,-94.5133,1.438,1111122 
TCOON,ioos:station:TCOON:518:1,2014-06-11T18:00:00Z,29.5150,-94.5133,1.438,1111122 
TCOON,ioos:station:TCOON:518:1,2014-06-11T19:00:00Z,29.5150,-94.5133,1.45,1111122 
TCOON,ioos:station:TCOON:518:1,2014-06-11T19:54:00Z,29.5150,-94.5133,1.44,1111122 
TCOON,ioos:station:TCOON:518:1,2014-06-11T20:54:00Z,29.5150,-94.5133,1.422,1111122 
TCOON,ioos:station:TCOON:518:1,2014-06-11T22:00:00Z,29.5150,-94.5133,1.378,1111122 
TCOON,ioos:station:TCOON:518:1,2014-06-11T23:00:00Z,29.5150,-94.5133,1.336,1111122 
TCOON,ioos:station:TCOON:518:1,2014-06-12T00:00:00Z,29.5150,-94.5133,1.297,1111122 
TCOON,ioos:station:TCOON:518:1,2014-06-12T01:00:00Z,29.5150,-94.5133,1.231,1111122 
TCOON,ioos:station:TCOON:518:1,2014-06-12T02:00:00Z,29.5150,-94.5133,1.171,1111122 
TCOON,ioos:station:TCOON:518:1,2014-06-12T03:00:00Z,29.5150,-94.5133,1.117,1111122 
TCOON,ioos:station:TCOON:518:1,2014-06-12T04:00:00Z,29.5150,-94.5133,1.057,1111122 
TCOON,ioos:station:TCOON:518:1,2014-06-12T05:00:00Z,29.5150,-94.5133,1.025,1111122 
TCOON,ioos:station:TCOON:518:1,2014-06-12T06:30:00Z,29.5150,-94.5133,1.01,1111122 
TCOON,ioos:station:TCOON:518:1,2014-06-12T07:00:00Z,29.5150,-94.5133,1.019,1111122 
TCOON,ioos:station:TCOON:518:1,2014-06-12T08:00:00Z,29.5150,-94.5133,1.073,1111122 
TCOON,ioos:station:TCOON:518:1,2014-06-12T09:00:00Z,29.5150,-94.5133,1.176,1111122 
TCOON,ioos:station:TCOON:518:1,2014-06-12T10:00:00Z,29.5150,-94.5133,1.288,1111122 
TCOON,ioos:station:TCOON:518:1,2014-06-12T11:00:00Z,29.5150,-94.5133,1.381,1111122 
TCOON,ioos:station:TCOON:518:1,2014-06-12T12:00:00Z,29.5150,-94.5133,1.426,1111122 
TCOON,ioos:station:TCOON:518:1,2014-06-12T13:00:00Z,29.5150,-94.5133,1.465,1111122 
TCOON,ioos:station:TCOON:518:1,2014-06-12T14:00:00Z,29.5150,-94.5133,1.534,1111122 
TCOON,ioos:station:TCOON:518:1,2014-06-12T15:00:00Z,29.5150,-94.5133,1.553,1111122 
TCOON,ioos:station:TCOON:518:1,2014-06-12T16:00:00Z,29.5150,-94.5133,1.546,1111122 
TCOON,ioos:station:TCOON:518:1,2014-06-12T17:00:00Z,29.5150,-94.5133,1.55,1111122 
TCOON,ioos:station:TCOON:518:1,2014-06-12T18:00:00Z,29.5150,-94.5133,1.593,1111122 
TCOON,ioos:station:TCOON:518:1,2014-06-12T19:00:00Z,29.5150,-94.5133,1.592,1111122 
TCOON,ioos:station:TCOON:518:1,2014-06-12T20:00:00Z,29.5150,-94.5133,1.557,1111122 